Total_Precipitation_Accumulation
0.00 0.00 0.00 0.00 0.00 0.00 0.00 0.00 0.00 0.00 0.00 0.00 0.00 0.00 0.00 0.00 0.00 0.00 0.00 0.00 0.00 0.00 0.00 0.00 0.00 0.00 0.00 0.00 0.00 0.00 0.00 0.03 0.05 0.13 0.13 0.02 0.12 0.46 0.02 0.04 0.01 0.01 0.01 0.03 0.02 0.02 0.03 0.01 0.00 0.00 0.00 0.00 0.00 0.00 0.00 0.00 0.00 0.00 0.00 0.00 0.00 0.00 0.00 0.00 0.01 0.01 0.02 0.01 0.01 0.01 0.01 0.01 0.01 0.01 0.02 0.02 0.03 0.02 0.02 0.01 0.02 0.03 0.07 0.05 0.04 0.03 0.01 0.01 0.01 0.01 0.01 0.01 0.01 0.01 0.02 0.02 0.02
0.00 0.00 0.00 0.00 0.00 0.00 0.00 0.00 0.00 0.00 0.00 0.00 0.00 0.00 0.00 0.00 0.00 0.00 0.00 0.00 0.00 0.00 0.00 0.00 0.00 0.00 0.00 0.00 0.00 0.00 0.00 0.01 0.00 0.01 0.07 0.09 0.13 0.40 0.13 0.02 0.00 0.01 0.02 0.04 0.01 0.01 0.03 0.05 0.01 0.00 0.00 0.00 0.00 0.00 0.00 0.00 0.00 0.00 0.01 0.00 0.00 0.00 0.00 0.00 0.00 0.01 0.01 0.00 0.01 0.01 0.01 0.01 0.02 0.02 0.05 0.04 0.02 0.01 0.02 0.02 0.03 0.05 0.05 0.03 0.02 0.01 0.03 0.02 0.02 0.01 0.01 0.01 0.01 0.02 0.02 0.02 0.03
0.00 0.00 0.00 0.00 0.00 0.00 0.00 0.00 0.00 0.00 0.00 0.00 0.00 0.00 0.00 0.00 0.00 0.00 0.00 0.00 0.00 0.00 0.00 0.00 0.00 0.00 0.00 0.00 0.00 0.00 0.33 0.03 0.01 0.02 0.07 0.09 0.08 0.27 0.18 0.06 0.01 0.01 0.01 0.03 0.02 0.01 0.02 0.04 0.00 0.00 0.02 0.00 0.00 0.00 0.01 0.00 0.00 0.00 0.00 0.01 0.01 0.00 0.00 0.00 0.00 0.01 0.01 0.01 0.02 0.02 0.03 0.03 0.04 0.04 0.02 0.01 0.01 0.00 0.00 0.01 0.03 0.04 0.04 0.02 0.02 0.02 0.03 0.03 0.07 0.11 0.02 0.04 0.03 0.02 0.02 0.02 0.02
0.00 0.00 0.00 0.00 0.00 0.00 0.00 0.00 0.00 0.00 0.00 0.00 0.00 0.00 0.00 0.00 0.00 0.00 0.00 0.00 0.00 0.00 0.00 0.00 0.00 0.00 0.00 0.00 0.04 0.00 0.01 0.10 0.06 0.01 0.10 0.10 0.07 0.10 0.16 0.06 0.03 0.04 0.02 0.03 0.02 0.02 0.01 0.04 0.02 0.00 0.01 0.00 0.00 0.01 0.01 0.01 0.00 0.00 0.00 0.00 0.00 0.00 0.00 0.00 0.00 0.00 0.00 0.01 0.02 0.04 0.04 0.03 0.05 0.06 0.03 0.02 0.01 0.00 0.00 0.01 0.02 0.02 0.02 0.02 0.03 0.04 0.03 0.04 0.04 0.06 0.04 0.02 0.02 0.01 0.01 0.02 0.02
0.00 0.00 0.00 0.00 0.00 0.00 0.00 0.00 0.00 0.00 0.00 0.00 0.00 0.00 0.00 0.00 0.00 0.00 0.00 0.00 0.00 0.00 0.00 0.00 0.00 0.00 0.00 0.01 0.00 0.03 0.07 0.03 0.04 0.03 0.03 0.05 0.03 0.12 0.15 0.13 0.05 0.05 0.04 0.04 0.02 0.01 0.02 0.03 0.02 0.00 0.00 0.01 0.01 0.01 0.01 0.01 0.01 0.00 0.00 0.01 0.00 0.00 0.00 0.00 0.00 0.01 0.01 0.02 0.04 0.04 0.06 0.08 0.05 0.09 0.05 0.05 0.02 0.00 0.00 0.00 0.00 0.02 0.02 0.03 0.01 0.02 0.01 0.02 0.02 0.02 0.01 0.02 0.01 0.01 0.03 0.01 0.02
0.00 0.00 0.00 0.00 0.00 0.00 0.00 0.00 0.00 0.00 0.00 0.00 0.00 0.00 0.00 0.00 0.00 0.00 0.00 0.00 0.00 0.00 0.00 0.00 0.00 0.00 0.01 0.04 0.04 0.07 0.07 0.11 0.05 0.02 0.04 0.04 0.10 0.12 0.14 0.07 0.04 0.05 0.05 0.04 0.02 0.01 0.02 0.02 0.01 0.00 0.00 0.01 0.01 0.02 0.02 0.01 0.01 0.00 0.01 0.00 0.00 0.00 0.00 0.00 0.01 0.01 0.03 0.03 0.03 0.06 0.05 0.04 0.13 0.03 0.03 0.07 0.04 0.04 0.02 0.01 0.00 0.01 0.06 0.02 0.01 0.01 0.01 0.02 0.01 0.00 0.00 0.00 0.01 0.01 0.01 0.01 0.01
0.00 0.00 0.00 0.00 0.00 0.00 0.00 0.00 0.00 0.00 0.00 0.00 0.00 0.00 0.00 0.00 0.00 0.00 0.00 0.00 0.00 0.00 0.00 0.00 0.00 0.00 0.02 0.01 0.01 0.04 0.05 0.04 0.02 0.05 0.04 0.05 0.30 0.14 0.25 0.08 0.02 0.05 0.05 0.04 0.02 0.01 0.02 0.01 0.00 0.01 0.00 0.01 0.03 0.02 0.02 0.02 0.02 0.01 0.00 0.00 0.00 0.00 0.00 0.00 0.01 0.02 0.02 0.04 0.04 0.04 0.06 0.03 0.02 0.02 0.08 0.07 0.13 0.06 0.07 0.03 0.06 0.11 0.05 0.01 0.03 0.02 0.02 0.01 0.01 0.01 0.01 0.02 0.01 0.01 0.00 0.00 0.00
0.00 0.00 0.00 0.00 0.00 0.00 0.00 0.00 0.00 0.00 0.00 0.00 0.00 0.00 0.00 0.00 0.00 0.00 0.00 0.00 0.00 0.00 0.00 0.00 0.00 0.00 0.15 0.00 0.12 0.04 0.02 0.03 0.05 0.03 0.01 0.06 0.09 0.17 0.13 0.08 0.06 0.11 0.10 0.11 0.03 0.01 0.17 0.01 0.00 0.00 0.00 0.01 0.02 0.01 0.02 0.03 0.02 0.01 0.00 0.00 0.00 0.01 0.01 0.00 0.01 0.02 0.03 0.04 0.03 0.07 0.07 0.02 0.03 0.03 0.03 0.03 0.04 0.09 0.04 0.02 0.08 0.12 0.06 0.08 0.06 0.02 0.01 0.01 0.01 0.00 0.00 0.01 0.00 0.00 0.00 0.01 0.00
0.00 0.00 0.00 0.00 0.00 0.00 0.00 0.00 0.00 0.00 0.00 0.00 0.00 0.00 0.00 0.00 0.00 0.00 0.00 0.00 0.00 0.00 0.00 0.00 0.00 0.01 0.04 0.03 0.07 0.04 0.05 0.03 0.01 0.04 0.11 0.30 0.08 0.29 0.19 0.24 0.16 0.15 0.31 0.41 0.06 0.05 0.04 0.01 0.00 0.00 0.00 0.00 0.02 0.03 0.03 0.02 0.02 0.02 0.01 0.01 0.00 0.00 0.00 0.00 0.02 0.03 0.05 0.05 0.05 0.07 0.07 0.02 0.03 0.02 0.04 0.03 0.09 0.07 0.01 0.03 0.06 0.13 0.07 0.03 0.02 0.01 0.01 0.02 0.04 0.07 0.01 0.00 0.00 0.00 0.00 0.00 0.00
0.00 0.00 0.00 0.00 0.00 0.00 0.00 0.00 0.00 0.00 0.00 0.00 0.00 0.00 0.00 0.00 0.00 0.00 0.00 0.00 0.00 0.00 0.00 0.00 0.00 0.00 0.01 0.11 0.07 0.09 0.10 0.05 0.03 0.12 0.28 0.06 0.09 0.09 0.24 0.20 0.20 0.14 0.45 0.39 0.13 0.05 0.04 0.19 0.01 0.00 0.00 0.01 0.02 0.03 0.02 0.01 0.02 0.02 0.02 0.00 0.01 0.00 0.00 0.01 0.01 0.04 0.07 0.05 0.04 0.04 0.08 0.03 0.01 0.02 0.01 0.07 0.09 0.04 0.05 0.02 0.04 0.06 0.07 0.05 0.04 0.02 0.00 0.01 0.03 0.02 0.01 0.00 0.01 0.01 0.00 0.00 0.00
0.00 0.00 0.00 0.00 0.00 0.00 0.00 0.00 0.00 0.00 0.00 0.00 0.00 0.00 0.00 0.00 0.00 0.00 0.00 0.00 0.00 0.00 0.00 0.00 0.00 0.00 0.01 0.18 0.17 0.07 0.04 0.04 0.06 0.16 0.10 0.19 0.08 0.08 0.16 0.23 0.20 0.36 0.69 0.44 0.27 0.06 0.08 0.10 0.13 0.01 0.03 0.04 0.02 0.06 0.07 0.04 0.04 0.04 0.01 0.01 0.01 0.01 0.02 0.01 0.04 0.05 0.06 0.03 0.03 0.04 0.04 0.02 0.02 0.03 0.04 0.07 0.05 0.07 0.04 0.04 0.05 0.09 0.07 0.04 0.01 0.01 0.02 0.01 0.01 0.01 0.02 0.01 0.00 0.00 0.00 0.00 0.00
0.00 0.00 0.00 0.00 0.00 0.00 0.00 0.00 0.00 0.00 0.00 0.00 0.00 0.00 0.00 0.00 0.00 0.00 0.00 0.00 0.00 0.00 0.00 0.00 0.00 0.00 0.05 0.11 0.12 0.27 0.07 0.05 0.05 0.06 0.07 0.07 0.08 0.13 0.16 0.31 0.21 0.28 0.80 0.76 0.17 0.11 0.19 0.21 0.19 0.22 0.04 0.07 0.05 0.11 0.06 0.05 0.02 0.02 0.02 0.03 0.05 0.01 0.01 0.02 0.03 0.05 0.05 0.03 0.02 0.01 0.03 0.03 0.03 0.06 0.03 0.04 0.02 0.04 0.03 0.04 0.06 0.08 0.04 0.05 0.02 0.01 0.01 0.01 0.01 0.00 0.00 0.00 0.00 0.00 0.00 0.00 0.00
0.00 0.00 0.00 0.00 0.00 0.00 0.00 0.00 0.00 0.00 0.00 0.00 0.00 0.00 0.00 0.00 0.00 0.00 0.00 0.00 0.00 0.00 0.00 0.01 0.00 0.00 0.10 0.16 0.13 0.17 0.18 0.16 0.07 0.04 0.08 0.03 0.07 0.06 0.11 0.12 0.18 0.37 0.75 0.39 0.18 0.16 0.23 0.10 0.21 0.21 0.17 0.07 0.06 0.07 0.03 0.06 0.06 0.06 0.09 0.04 0.01 0.02 0.03 0.03 0.03 0.05 0.05 0.03 0.01 0.01 0.04 0.03 0.03 0.09 0.06 0.05 0.02 0.03 0.03 0.04 0.01 0.03 0.03 0.03 0.01 0.00 0.00 0.00 0.00 0.00 0.00 0.00 0.00 0.00 0.00 0.00 0.00
0.00 0.00 0.00 0.00 0.00 0.00 0.00 0.00 0.00 0.00 0.00 0.00 0.00 0.00 0.00 0.00 0.00 0.00 0.00 0.00 0.00 0.00 0.00 0.00 0.00 0.00 0.53 0.10 0.40 0.24 0.18 0.07 0.11 0.09 0.08 0.09 0.09 0.15 0.09 0.12 0.14 0.31 0.50 0.60 0.57 0.63 0.30 0.19 0.23 0.22 0.21 0.23 0.28 0.09 0.08 0.06 0.11 0.08 0.06 0.07 0.05 0.03 0.01 0.04 0.03 0.03 0.04 0.02 0.02 0.06 0.06 0.06 0.04 0.04 0.03 0.02 0.03 0.04 0.01 0.01 0.05 0.03 0.04 0.01 0.00 0.01 0.00 0.00 0.00 0.00 0.00 0.00 0.00 0.00 0.00 0.00 0.00
0.00 0.00 0.00 0.00 0.00 0.00 0.00 0.00 0.00 0.00 0.00 0.00 0.00 0.00 0.00 0.00 0.00 0.00 0.00 0.00 0.01 0.00 0.00 0.00 0.00 0.01 0.69 0.12 0.25 0.17 0.07 0.05 0.05 0.03 0.10 0.16 0.21 0.06 0.09 0.08 0.13 0.16 0.18 0.34 0.51 0.44 0.25 0.36 0.24 0.27 0.38 0.22 0.24 0.15 0.21 0.18 0.05 0.08 0.00 0.01 0.01 0.00 0.01 0.01 0.01 0.02 0.04 0.03 0.02 0.04 0.05 0.04 0.05 0.02 0.01 0.02 0.01 0.01 0.03 0.03 0.06 0.03 0.01 0.00 0.00 0.00 0.00 0.00 0.00 0.00 0.00 0.00 0.00 0.00 0.00 0.00 0.00
0.00 0.00 0.00 0.00 0.00 0.00 0.00 0.00 0.00 0.00 0.00 0.00 0.00 0.00 0.00 0.00 0.00 0.00 0.00 0.00 0.00 0.00 0.00 0.01 0.00 0.07 0.05 0.06 0.14 0.05 0.03 0.05 0.04 0.04 0.08 0.11 0.11 0.08 0.11 0.10 0.16 0.13 0.13 0.28 0.23 0.28 0.30 0.21 0.24 0.24 0.30 0.32 0.26 0.14 0.15 0.09 0.14 0.05 0.01 0.01 0.01 0.02 0.02 0.01 0.01 0.02 0.04 0.07 0.12 0.10 0.13 0.15 0.10 0.11 0.05 0.15 0.09 0.03 0.01 0.12 0.03 0.01 0.01 0.00 0.00 0.00 0.00 0.00 0.00 0.00 0.00 0.00 0.00 0.00 0.00 0.00 0.00
0.00 0.00 0.00 0.00 0.00 0.00 0.00 0.00 0.00 0.00 0.00 0.00 0.00 0.00 0.00 0.00 0.00 0.00 0.00 0.00 0.01 0.00 0.00 0.00 0.08 0.01 0.07 0.11 0.09 0.00 0.02 0.03 0.02 0.05 0.04 0.12 0.09 0.12 0.13 0.14 0.15 0.30 0.20 0.26 0.39 0.30 0.35 0.57 0.38 0.39 0.37 0.20 0.27 0.21 0.09 0.07 0.07 0.11 0.11 0.04 0.03 0.03 0.02 0.01 0.02 0.05 0.09 0.15 0.08 0.25 0.09 0.22 0.23 0.18 0.31 0.25 0.08 0.09 0.02 0.03 0.01 0.00 0.00 0.00 0.00 0.00 0.00 0.00 0.00 0.00 0.00 0.00 0.00 0.00 0.00 0.00 0.00
0.00 0.00 0.00 0.00 0.00 0.00 0.00 0.00 0.00 0.00 0.00 0.00 0.00 0.00 0.00 0.00 0.00 0.00 0.00 0.00 0.00 0.00 0.02 0.01 0.02 0.05 0.12 0.04 0.12 0.03 0.02 0.04 0.06 0.04 0.06 0.06 0.06 0.09 0.13 0.12 0.13 0.22 0.17 0.23 0.47 0.38 0.43 0.32 0.44 0.38 0.37 0.35 0.37 0.23 0.14 0.19 0.20 0.20 0.26 0.22 0.22 0.14 0.13 0.10 0.07 0.06 0.28 0.31 0.18 0.17 0.35 0.42 0.29 0.46 0.36 0.42 0.24 0.11 0.08 0.01 0.00 0.00 0.00 0.00 0.00 0.00 0.00 0.00 0.00 0.00 0.00 0.00 0.00 0.00 0.00 0.01 0.00
0.00 0.00 0.00 0.00 0.00 0.00 0.00 0.00 0.00 0.00 0.00 0.00 0.00 0.00 0.00 0.00 0.00 0.00 0.02 0.01 0.01 0.01 0.03 0.04 0.10 0.16 0.19 0.07 0.02 0.04 0.03 0.05 0.06 0.05 0.05 0.06 0.06 0.08 0.11 0.15 0.15 0.20 0.17 0.25 0.58 0.59 0.65 0.71 1.16 0.76 0.62 0.57 0.67 0.36 0.25 0.21 0.37 0.41 0.48 0.48 0.32 0.24 0.31 0.17 0.09 0.17 0.30 0.16 0.23 0.57 0.64 0.46 0.49 0.43 0.59 0.29 0.25 0.08 0.13 0.02 0.00 0.00 0.00 0.00 0.00 0.00 0.00 0.00 0.00 0.00 0.00 0.00 0.00 0.00 0.03 0.05 0.02
0.00 0.00 0.00 0.00 0.00 0.00 0.00 0.00 0.00 0.00 0.00 0.00 0.00 0.00 0.00 0.00 0.00 0.00 0.01 0.01 0.00 0.03 0.01 0.03 0.19 0.35 0.13 0.09 0.11 0.07 0.07 0.05 0.06 0.08 0.11 0.10 0.19 0.23 0.22 0.26 0.26 0.37 0.24 0.17 0.66 0.41 0.30 0.54 0.89 1.03 0.80 1.47 0.52 0.56 0.36 0.23 0.40 0.59 0.42 0.36 0.41 0.38 0.33 0.27 0.18 0.31 0.33 0.78 0.47 0.76 0.76 0.56 0.74 0.46 0.31 0.32 0.29 0.32 0.24 0.03 0.05 0.01 0.00 0.00 0.00 0.01 0.01 0.01 0.01 0.04 0.01 0.00 0.00 0.02 0.20 0.08 0.05
0.00 0.00 0.00 0.00 0.00 0.00 0.00 0.00 0.00 0.00 0.00 0.00 0.00 0.00 0.00 0.00 0.00 0.00 0.00 0.02 0.00 0.06 0.04 0.02 0.09 0.18 0.13 0.12 0.07 0.09 0.07 0.09 0.13 0.44 0.97 0.23 0.15 0.36 0.82 0.72 0.96 0.65 0.24 0.31 0.34 0.39 0.33 0.45 0.73 0.61 0.89 1.70 0.50 0.42 0.66 0.41 0.30 0.34 0.24 0.28 0.36 0.36 0.40 0.39 0.41 0.54 0.74 0.92 0.72 1.07 0.62 0.59 0.61 0.39 0.36 0.30 0.31 0.32 0.23 0.10 0.12 0.08 0.06 0.07 0.01 0.07 0.10 0.11 0.06 0.07 0.03 0.01 0.10 0.16 0.24 0.21 0.06
0.00 0.00 0.00 0.00 0.00 0.00 0.00 0.00 0.00 0.00 0.00 0.00 0.00 0.00 0.00 0.00 0.00 0.00 0.00 0.00 0.03 0.02 0.03 0.01 0.04 0.41 0.08 0.13 0.14 0.10 0.08 0.09 0.25 0.65 1.40 0.46 0.27 0.59 0.85 1.69 0.81 0.39 0.46 0.50 0.81 0.43 0.60 0.36 0.47 0.58 1.72 0.88 0.80 0.41 0.59 0.35 0.44 0.31 0.36 0.39 0.28 0.58 0.81 0.78 0.52 0.82 0.98 0.91 1.06 0.92 1.01 0.55 0.47 0.42 0.33 0.35 0.63 0.56 0.46 0.62 0.46 0.21 0.19 0.13 0.06 0.29 0.24 0.08 0.16 0.07 0.06 0.04 0.08 0.12 0.37 0.14 0.03
0.00 0.00 0.00 0.00 0.00 0.00 0.00 0.00 0.00 0.00 0.00 0.00 0.00 0.00 0.00 0.00 0.00 0.00 0.00 0.00 0.00 0.00 0.00 0.01 0.04 0.13 0.05 0.06 0.05 0.09 0.08 0.13 0.45 1.07 0.95 0.34 0.44 0.67 1.07 1.32 0.61 0.21 0.61 0.96 0.48 0.63 0.69 0.55 0.85 1.45 1.21 0.60 0.38 0.53 0.64 0.28 0.43 0.42 0.48 0.41 0.47 0.50 0.60 0.96 0.73 0.51 1.08 0.75 0.92 0.67 0.68 0.64 0.52 0.27 0.25 0.52 0.48 0.33 0.27 0.24 0.40 0.48 0.18 0.37 0.15 0.40 0.30 0.05 0.05 0.11 0.04 0.04 0.11 0.10 0.36 0.11 0.09
0.00 0.00 0.00 0.00 0.00 0.00 0.00 0.00 0.00 0.00 0.00 0.00 0.00 0.00 0.00 0.00 0.00 0.00 0.00 0.00 0.00 0.01 0.02 0.01 0.04 0.08 0.03 0.05 0.06 0.07 0.09 0.19 0.52 1.51 0.86 0.66 0.78 1.88 2.39 1.27 0.72 0.70 0.59 0.58 0.63 1.02 0.87 0.64 0.90 0.82 1.13 1.04 1.49 0.63 0.63 0.34 0.49 0.62 0.45 0.56 0.57 0.50 0.74 0.97 0.82 1.07 0.81 0.79 0.55 1.05 0.95 0.58 0.50 0.23 0.14 0.15 0.09 0.16 0.27 0.16 0.15 0.20 0.09 0.10 0.14 0.24 0.38 0.10 0.15 0.05 0.08 0.05 0.14 0.07 0.12 0.13 0.15
0.00 0.00 0.00 0.00 0.00 0.00 0.00 0.00 0.00 0.00 0.00 0.00 0.00 0.00 0.00 0.00 0.00 0.00 0.00 0.00 0.00 0.00 0.00 0.01 0.03 0.04 0.05 0.05 0.06 0.07 0.08 0.10 0.48 0.86 0.74 0.91 1.57 3.78 3.61 2.80 1.56 0.73 0.26 0.43 0.94 0.92 0.84 0.59 0.52 1.12 1.38 0.89 1.12 1.12 0.40 0.36 0.58 0.51 0.61 0.78 0.40 0.47 0.53 0.67 0.62 0.86 0.59 0.45 0.81 0.47 0.37 0.72 0.21 0.39 0.46 0.20 0.28 0.28 0.23 0.23 0.36 0.32 0.31 0.27 0.20 0.16 0.52 0.43 0.23 0.31 0.37 0.17 0.11 0.09 0.20 0.15 0.11
0.00 0.00 0.00 0.00 0.00 0.00 0.00 0.00 0.00 0.00 0.00 0.00 0.00 0.00 0.00 0.00 0.00 0.00 0.00 0.00 0.00 0.00 0.00 0.00 0.02 0.03 0.07 0.06 0.04 0.06 0.10 0.07 0.38 0.68 1.30 1.31 1.85 3.97 2.29 2.52 1.85 0.65 0.79 1.24 1.15 0.86 0.70 0.75 0.67 0.93 0.83 0.95 1.22 0.77 0.39 0.39 0.65 0.51 0.61 0.54 0.52 0.34 0.60 0.59 0.31 0.52 0.48 0.55 0.35 0.23 0.39 0.18 0.24 0.31 0.16 0.15 0.28 0.65 0.43 0.16 0.20 0.47 0.30 0.38 0.50 0.46 0.53 0.45 0.40 0.37 0.41 0.25 0.09 0.04 0.12 0.11 0.14
0.00 0.00 0.00 0.00 0.00 0.00 0.00 0.00 0.00 0.00 0.00 0.00 0.00 0.00 0.00 0.00 0.00 0.00 0.00 0.00 0.00 0.00 0.00 0.00 0.01 0.02 0.11 0.09 0.10 0.12 0.07 0.10 0.37 0.70 1.32 1.75 1.95 2.76 1.27 1.83 1.82 2.92 2.57 2.24 2.17 1.55 1.44 1.04 0.76 0.92 1.26 1.42 1.16 1.10 0.89 0.78 0.78 0.47 0.34 0.43 0.41 0.43 0.64 0.50 0.27 0.31 0.42 0.61 0.80 0.41 0.42 0.18 0.15 0.15 0.17 0.25 0.37 0.66 0.76 0.29 0.24 0.36 0.55 0.54 0.45 0.47 0.60 0.46 0.49 0.45 0.63 0.39 0.27 0.20 0.07 0.23 0.16
0.00 0.00 0.00 0.00 0.00 0.00 0.00 0.00 0.00 0.00 0.00 0.00 0.00 0.00 0.00 0.00 0.00 0.00 0.00 0.00 0.00 0.00 0.00 0.01 0.02 0.04 0.09 0.12 0.11 0.16 0.13 0.12 0.17 1.00 1.78 1.02 1.92 2.39 1.64 1.66 1.48 1.45 1.70 2.56 2.39 2.14 1.37 1.56 1.51 0.95 1.61 1.33 0.72 0.77 0.69 0.75 0.45 0.48 0.50 0.48 0.43 0.81 0.39 0.29 0.35 0.30 0.48 0.46 0.65 0.59 0.40 0.41 0.40 0.21 0.27 0.28 0.36 0.33 0.85 0.80 0.62 0.67 0.59 0.45 0.42 0.45 0.45 0.49 0.47 0.67 0.39 0.11 0.03 0.19 0.17 0.14 0.19
0.00 0.00 0.00 0.00 0.00 0.00 0.00 0.00 0.00 0.00 0.00 0.00 0.00 0.00 0.00 0.00 0.00 0.00 0.00 0.00 0.00 0.00 0.00 0.01 0.02 0.04 0.12 0.08 0.16 0.11 0.14 0.10 0.56 0.69 1.38 1.98 2.03 1.82 0.80 0.90 1.31 1.10 1.83 3.45 2.15 1.66 2.05 1.34 2.10 2.41 1.94 1.04 0.77 0.62 0.45 0.46 0.30 0.57 0.60 0.58 0.37 0.43 0.40 0.29 0.28 0.24 0.17 0.46 0.31 0.45 0.55 0.38 0.35 0.20 0.37 0.33 0.48 0.53 0.56 0.63 0.67 0.54 0.55 0.52 0.55 0.54 0.47 0.32 0.56 0.62 0.48 0.24 0.06 0.06 0.08 0.06 0.31
0.00 0.00 0.00 0.00 0.00 0.00 0.00 0.00 0.00 0.00 0.00 0.00 0.00 0.00 0.00 0.00 0.00 0.00 0.00 0.00 0.00 0.00 0.01 0.01 0.07 0.07 0.07 0.09 0.08 0.08 0.09 0.10 0.25 0.63 1.16 1.07 1.43 0.93 0.55 0.77 0.59 1.14 1.57 1.36 1.61 1.45 1.57 1.40 1.47 1.71 1.95 1.43 1.27 0.81 0.56 0.32 0.28 0.52 0.62 0.70 0.65 0.20 0.47 0.44 0.55 0.58 0.28 0.18 0.20 0.21 0.22 0.35 0.42 0.30 0.36 0.24 0.22 0.56 0.40 0.34 0.39 0.54 0.40 0.29 0.39 0.71 0.58 0.32 0.45 0.41 0.21 0.23 0.15 0.15 0.12 0.05 0.46
0.00 0.00 0.00 0.00 0.00 0.00 0.00 0.00 0.00 0.00 0.00 0.00 0.00 0.00 0.00 0.00 0.00 0.00 0.00 0.00 0.00 0.00 0.00 0.01 0.05 0.06 0.05 0.09 0.07 0.07 0.14 0.04 0.17 0.64 0.50 1.15 0.62 0.38 0.52 1.06 1.42 2.60 2.75 0.95 1.09 1.43 1.91 1.23 1.50 1.61 1.86 1.88 1.16 0.57 0.51 0.62 0.56 0.49 0.43 0.69 0.79 0.57 0.52 0.41 0.15 0.21 0.37 0.58 0.78 0.27 0.43 0.30 0.21 0.26 0.24 0.08 0.35 0.23 0.32 0.52 0.31 0.36 0.33 0.30 0.35 0.46 0.43 0.32 0.42 0.40 0.23 0.20 0.36 0.97 0.19 0.09 0.19
0.00 0.00 0.00 0.00 0.00 0.00 0.00 0.00 0.00 0.00 0.00 0.00 0.00 0.00 0.00 0.00 0.00 0.00 0.00 0.00 0.00 0.00 0.00 0.01 0.02 0.05 0.09 0.06 0.07 0.08 0.08 0.15 0.29 0.48 0.49 0.87 0.60 0.71 1.08 1.80 2.13 2.32 2.02 1.99 1.47 1.72 1.10 1.30 2.12 1.61 1.12 0.99 1.01 0.72 0.64 0.66 1.02 0.92 0.84 0.72 0.85 0.87 0.81 0.83 0.59 0.57 0.32 0.33 0.58 0.33 0.75 0.31 0.32 0.12 0.13 0.25 0.21 0.30 0.16 0.14 0.17 0.24 0.23 0.18 0.33 0.44 0.40 0.22 0.47 0.88 0.45 0.26 0.27 0.37 0.43 0.37 0.35
0.00 0.00 0.00 0.00 0.00 0.00 0.00 0.00 0.00 0.00 0.00 0.00 0.00 0.00 0.00 0.00 0.00 0.00 0.00 0.00 0.00 0.00 0.00 0.01 0.02 0.07 0.11 0.10 0.10 0.10 0.18 0.27 0.47 0.25 0.46 0.94 0.96 0.99 1.48 1.86 2.25 1.81 2.36 1.91 2.05 1.99 1.56 1.40 1.70 1.33 1.38 0.95 0.95 0.79 0.53 0.78 1.10 0.92 1.46 1.05 0.47 0.75 0.80 0.51 0.66 0.80 0.73 0.36 0.19 0.16 0.13 0.17 0.08 0.17 0.43 0.34 0.43 0.51 0.54 0.35 0.22 0.16 0.17 0.15 0.27 0.41 0.41 0.26 0.26 0.95 0.22 0.22 0.32 0.23 0.39 0.22 0.41
0.00 0.00 0.00 0.00 0.00 0.00 0.00 0.00 0.00 0.00 0.00 0.00 0.00 0.00 0.00 0.00 0.00 0.00 0.00 0.00 0.00 0.00 0.00 0.01 0.02 0.03 0.07 0.07 0.13 0.07 0.21 0.20 0.24 0.24 0.49 0.80 0.63 1.31 1.36 1.19 1.70 1.95 1.47 2.18 1.71 1.48 1.27 1.49 1.41 1.34 1.53 0.85 0.88 0.89 0.96 1.42 1.51 1.35 0.85 0.55 0.66 0.62 0.24 0.46 0.60 0.34 0.38 0.14 0.12 0.14 0.34 0.12 0.28 0.15 0.45 0.43 0.59 0.35 0.47 0.24 0.51 0.46 0.44 0.25 0.23 0.36 0.44 0.13 0.18 0.60 0.28 0.23 0.30 0.41 0.32 0.27 0.38
0.00 0.00 0.00 0.00 0.00 0.00 0.00 0.00 0.00 0.00 0.00 0.00 0.00 0.00 0.00 0.00 0.00 0.00 0.00 0.00 0.00 0.00 0.00 0.00 0.01 0.03 0.08 0.08 0.08 0.15 0.14 0.03 0.07 0.10 0.41 0.89 0.77 1.01 0.73 0.68 1.41 1.32 2.07 1.90 1.77 1.84 1.09 1.19 1.31 1.40 1.51 0.87 0.56 0.76 1.19 1.03 1.06 1.17 1.02 0.59 0.51 0.93 0.93 0.35 0.48 0.47 0.69 0.98 0.56 0.41 0.59 0.49 0.34 0.54 0.47 0.55 0.45 0.42 0.34 0.36 0.51 0.70 0.95 0.39 0.32 0.43 0.61 0.25 0.38 0.42 0.56 0.32 0.24 0.30 0.42 0.19 0.26
0.00 0.00 0.01 0.00 0.00 0.00 0.00 0.00 0.00 0.00 0.00 0.00 0.00 0.00 0.00 0.00 0.00 0.00 0.00 0.00 0.00 0.00 0.00 0.01 0.02 0.04 0.04 0.05 0.09 0.15 0.19 0.21 0.08 0.12 0.28 0.27 0.75 0.80 0.87 1.01 1.56 1.54 1.11 1.03 0.75 1.10 0.83 0.89 1.10 1.02 1.44 0.67 0.57 0.64 0.90 1.03 1.14 0.81 0.40 0.31 0.33 0.13 0.25 0.19 0.31 0.36 0.80 0.73 0.49 0.76 0.69 0.47 0.46 0.22 0.27 0.23 0.17 0.25 0.28 0.47 0.61 0.56 0.57 0.63 0.52 0.37 0.45 0.23 0.38 0.51 0.60 0.23 0.18 0.16 0.25 0.34 0.23
0.00 0.00 0.00 0.00 0.00 0.01 0.00 0.00 0.00 0.00 0.00 0.00 0.00 0.00 0.00 0.00 0.00 0.00 0.00 0.00 0.00 0.00 0.00 0.00 0.01 0.01 0.01 0.02 0.07 0.05 0.10 0.42 0.29 0.60 0.22 0.68 0.79 0.39 0.42 0.56 0.83 0.91 0.81 0.86 0.74 0.41 0.79 0.31 0.66 1.02 0.97 0.77 0.33 0.31 0.45 0.71 0.64 0.50 0.40 0.22 0.13 0.17 0.35 0.20 0.54 0.43 0.75 0.69 1.17 0.99 0.67 0.40 0.50 0.21 0.36 0.17 0.36 0.31 0.26 0.28 0.36 0.39 0.33 0.59 0.54 0.41 0.60 0.36 0.39 0.40 0.41 0.38 0.39 0.23 0.33 0.29 0.43
0.00 0.00 0.00 0.00 0.00 0.00 0.00 0.00 0.00 0.00 0.00 0.00 0.00 0.00 0.00 0.00 0.00 0.00 0.00 0.00 0.00 0.00 0.00 0.00 0.00 0.00 0.00 0.02 0.07 0.02 0.14 0.37 0.53 0.46 0.43 0.85 0.35 0.38 0.44 0.53 0.77 0.85 0.67 0.39 0.53 0.51 0.70 0.49 0.86 0.91 1.00 0.77 0.82 0.70 0.42 0.54 0.63 0.35 0.23 0.32 0.18 0.38 0.23 0.22 0.38 0.52 0.70 0.85 0.99 0.87 0.90 0.66 0.40 0.50 0.34 0.17 0.32 0.33 0.38 0.31 0.20 0.21 0.30 0.25 0.40 0.35 0.37 0.15 0.14 0.40 0.39 0.26 0.31 0.39 0.29 0.20 0.50
0.00 0.00 0.00 0.00 0.00 0.00 0.00 0.00 0.00 0.00 0.00 0.00 0.00 0.00 0.00 0.00 0.00 0.00 0.00 0.00 0.00 0.00 0.00 0.00 0.00 0.00 0.02 0.02 0.04 0.05 0.07 0.07 0.23 0.43 0.45 0.46 0.41 0.34 0.31 0.27 0.56 0.56 0.38 0.57 0.17 0.43 0.64 0.78 0.63 1.21 0.94 1.16 1.08 1.36 1.16 1.09 0.81 0.95 1.04 0.80 0.38 0.41 0.65 0.64 0.40 0.46 0.77 0.63 0.45 0.66 0.64 0.19 0.26 0.39 0.23 0.22 0.30 0.10 0.29 0.42 0.42 0.52 0.19 0.45 0.33 0.46 0.37 0.26 0.24 0.22 0.48 0.35 0.40 0.28 0.50 0.37 0.65
0.00 0.00 0.00 0.00 0.00 0.00 0.00 0.00 0.00 0.00 0.00 0.00 0.00 0.00 0.00 0.00 0.00 0.00 0.00 0.00 0.00 0.00 0.00 0.00 0.00 0.00 0.05 0.04 0.08 0.05 0.02 0.03 0.18 0.25 0.38 0.25 0.15 0.61 0.47 0.21 0.50 0.50 1.05 0.48 0.66 0.77 0.53 0.65 0.82 0.72 0.68 0.79 0.87 0.66 0.89 1.11 0.93 0.90 1.12 1.20 0.84 0.96 0.97 0.51 0.38 0.56 0.62 1.06 0.67 0.63 0.54 0.44 0.24 0.19 0.26 0.55 0.31 0.14 0.33 0.38 0.43 0.70 0.52 0.44 0.43 0.45 0.50 0.24 0.25 0.27 0.30 0.28 0.26 0.46 0.45 0.66 0.26
0.00 0.00 0.00 0.00 0.00 0.00 0.00 0.02 0.00 0.00 0.00 0.00 0.00 0.00 0.00 0.00 0.00 0.00 0.00 0.00 0.00 0.00 0.00 0.00 0.00 0.01 0.01 0.04 0.03 0.08 0.02 0.09 0.20 0.19 0.54 0.17 0.16 0.43 0.59 0.30 0.52 1.05 0.44 0.60 1.09 0.82 0.68 0.67 0.75 0.64 0.83 0.85 0.81 0.69 0.38 1.08 1.48 1.33 1.19 1.39 1.23 0.76 0.65 0.63 0.44 0.44 0.39 0.47 0.42 0.72 0.48 0.18 0.09 0.09 0.18 0.23 0.32 0.14 0.22 0.24 0.22 0.33 0.23 0.35 0.41 0.42 0.35 0.31 0.12 0.09 0.09 0.17 0.22 0.25 0.37 0.25 0.45
0.00 0.00 0.00 0.00 0.00 0.00 0.00 0.00 0.00 0.00 0.00 0.00 0.00 0.00 0.00 0.00 0.00 0.00 0.00 0.00 0.00 0.00 0.00 0.00 0.02 0.03 0.02 0.04 0.06 0.03 0.01 0.03 0.33 0.11 0.28 0.24 0.17 0.65 0.61 0.78 1.28 1.38 0.84 0.82 1.05 1.03 1.26 0.76 1.05 0.52 0.92 0.82 0.35 0.47 0.82 1.10 1.12 0.85 0.92 0.81 0.48 0.43 0.29 0.59 0.46 0.29 0.22 0.30 0.19 0.16 0.26 0.14 0.17 0.08 0.08 0.16 0.38 0.26 0.32 0.55 0.36 0.15 0.14 0.11 0.11 0.14 0.20 0.08 0.06 0.10 0.05 0.12 0.16 0.16 0.26 0.49 0.29
0.00 0.00 0.00 0.00 0.00 0.00 0.00 0.00 0.00 0.00 0.00 0.02 0.00 0.00 0.02 0.00 0.01 0.00 0.00 0.00 0.00 0.00 0.00 0.00 0.00 0.03 0.10 0.06 0.05 0.04 0.04 0.04 0.13 0.20 0.11 0.23 0.39 0.68 0.22 0.63 0.89 0.70 1.05 0.67 0.66 1.24 0.53 0.31 0.85 0.72 0.74 0.61 0.39 0.56 0.68 0.59 0.79 0.78 0.52 0.42 0.33 0.26 0.27 0.28 0.31 0.43 0.29 0.20 0.14 0.17 0.31 0.46 0.27 0.15 0.15 0.09 0.09 0.09 0.34 0.39 0.24 0.21 0.10 0.11 0.16 0.07 0.07 0.08 0.13 0.18 0.12 0.15 0.23 0.13 0.14 0.25 0.16
0.00 0.00 0.00 0.00 0.00 0.00 0.00 0.00 0.00 0.01 0.00 0.00 0.00 0.00 0.02 0.03 0.01 0.00 0.00 0.00 0.00 0.00 0.00 0.00 0.00 0.03 0.05 0.07 0.09 0.03 0.03 0.02 0.07 0.17 0.64 0.61 0.59 0.34 0.27 0.73 0.63 1.14 1.25 0.72 1.00 1.32 0.82 0.46 0.30 0.73 0.48 0.33 0.56 0.75 0.45 0.22 0.78 0.87 0.70 0.67 0.87 0.49 0.42 0.32 0.18 0.31 0.39 0.24 0.31 0.13 0.29 0.37 0.36 0.32 0.16 0.14 0.21 0.30 0.31 0.24 0.20 0.08 0.05 0.05 0.04 0.06 0.04 0.04 0.07 0.10 0.13 0.09 0.08 0.14 0.22 0.15 0.25
0.00 0.00 0.00 0.00 0.00 0.00 0.00 0.00 0.00 0.00 0.01 0.03 0.00 0.00 0.00 0.01 0.01 0.00 0.00 0.00 0.00 0.00 0.01 0.01 0.01 0.01 0.03 0.04 0.04 0.09 0.09 0.22 0.15 0.49 0.53 0.87 0.53 0.57 0.57 0.50 0.80 0.92 0.84 0.86 1.39 2.01 0.78 0.65 0.45 0.66 0.72 0.56 0.50 0.62 0.73 1.01 1.24 1.17 0.86 0.81 0.53 0.51 0.41 0.40 0.27 0.11 0.11 0.21 0.25 0.36 0.31 0.29 0.43 0.34 0.29 0.29 0.19 0.12 0.12 0.10 0.14 0.06 0.10 0.06 0.05 0.05 0.06 0.04 0.06 0.09 0.04 0.12 0.09 0.10 0.17 0.24 0.32
0.00 0.00 0.00 0.00 0.00 0.00 0.00 0.00 0.00 0.02 0.00 0.02 0.01 0.02 0.01 0.03 0.00 0.01 0.00 0.00 0.00 0.01 0.01 0.03 0.02 0.02 0.03 0.05 0.05 0.08 0.16 0.14 0.30 0.39 0.35 0.51 1.34 1.12 0.48 0.14 0.59 1.06 1.88 1.95 2.52 2.33 1.22 1.05 0.93 0.30 0.32 0.83 0.62 0.61 0.45 0.80 0.53 1.12 1.21 0.86 0.55 0.37 0.41 0.18 0.26 0.15 0.14 0.07 0.12 0.31 0.31 0.27 0.27 0.27 0.24 0.21 0.20 0.30 0.33 0.14 0.11 0.06 0.07 0.09 0.05 0.13 0.07 0.04 0.05 0.06 0.06 0.11 0.15 0.11 0.07 0.10 0.12
0.00 0.00 0.00 0.00 0.00 0.00 0.00 0.00 0.00 0.01 0.00 0.01 0.00 0.01 0.01 0.06 0.02 0.03 0.01 0.01 0.00 0.01 0.05 0.02 0.04 0.03 0.05 0.04 0.05 0.04 0.05 0.17 0.28 0.56 0.53 0.92 1.32 1.15 0.58 0.71 1.29 1.66 2.53 2.38 3.06 1.27 1.06 0.98 1.23 1.04 0.46 0.49 0.56 0.61 0.45 0.65 0.63 0.33 0.34 0.53 0.75 0.58 0.47 0.42 0.25 0.09 0.23 0.38 0.31 0.54 0.50 0.26 0.22 0.21 0.12 0.09 0.09 0.12 0.11 0.12 0.04 0.08 0.08 0.04 0.08 0.09 0.06 0.08 0.06 0.15 0.11 0.06 0.07 0.07 0.06 0.19 0.07
0.00 0.00 0.00 0.00 0.00 0.00 0.00 0.00 0.00 0.04 0.00 0.02 0.00 0.00 0.04 0.10 0.06 0.04 0.03 0.01 0.03 0.03 0.04 0.01 0.03 0.05 0.07 0.04 0.11 0.04 0.03 0.08 0.30 0.39 0.73 0.68 0.49 0.59 0.49 0.75 1.25 2.97 3.13 2.91 1.60 1.07 1.11 0.98 0.95 0.78 0.63 0.38 0.48 0.68 0.79 0.77 0.65 0.59 0.69 1.26 0.93 0.70 0.57 0.37 0.39 0.20 0.14 0.22 0.29 0.53 0.24 0.13 0.11 0.11 0.09 0.05 0.05 0.04 0.04 0.05 0.03 0.07 0.04 0.05 0.06 0.06 0.04 0.08 0.05 0.09 0.17 0.06 0.04 0.08 0.06 0.05 0.09
0.00 0.00 0.00 0.01 0.08 0.00 0.01 0.00 0.00 0.00 0.01 0.00 0.00 0.01 0.01 0.00 0.10 0.12 0.01 0.03 0.01 0.03 0.03 0.10 0.03 0.03 0.06 0.02 0.05 0.16 0.04 0.12 0.27 0.55 0.64 0.76 0.76 0.67 0.98 1.74 0.99 0.72 2.37 2.15 1.44 1.49 0.86 1.00 1.15 1.31 1.31 0.62 0.91 0.82 1.00 1.34 1.26 1.60 2.09 1.29 0.54 0.50 0.27 0.29 0.21 0.23 0.88 0.50 0.51 0.56 0.32 0.29 0.24 0.19 0.16 0.03 0.04 0.06 0.02 0.03 0.02 0.08 0.09 0.08 0.09 0.08 0.09 0.04 0.09 0.16 0.19 0.06 0.06 0.06 0.09 0.07 0.23
0.00 0.00 0.00 0.03 0.07 0.04 0.01 0.05 0.01 0.04 0.02 0.00 0.00 0.01 0.04 0.07 0.04 0.06 0.05 0.02 0.01 0.02 0.02 0.03 0.02 0.02 0.02 0.02 0.06 0.10 0.08 0.32 0.35 0.62 0.59 0.64 0.48 1.16 0.95 0.73 0.64 0.86 1.78 1.99 1.07 0.81 1.01 1.01 1.01 1.56 1.42 0.76 1.06 0.83 0.56 0.69 1.78 2.27 1.22 0.45 0.31 0.24 0.21 0.24 0.56 0.14 0.14 0.21 0.29 0.14 0.23 0.12 0.13 0.19 0.07 0.03 0.02 0.02 0.07 0.14 0.13 0.03 0.07 0.08 0.12 0.14 0.08 0.09 0.04 0.09 0.14 0.10 0.04 0.08 0.07 0.12 0.15
0.00 0.00 0.00 0.02 0.05 0.02 0.01 0.02 0.06 0.06 0.09 0.06 0.00 0.00 0.06 0.06 0.70 0.15 0.08 0.06 0.02 0.01 0.02 0.03 0.06 0.07 0.03 0.03 0.16 0.14 0.17 0.08 0.19 0.25 0.41 0.95 1.20 1.08 0.84 1.08 0.85 0.65 1.56 1.21 0.68 0.69 0.65 0.61 0.95 1.48 1.55 1.21 0.72 0.78 0.74 1.34 1.48 0.83 1.03 0.66 0.38 0.16 0.20 0.27 0.42 0.26 0.31 0.09 0.09 0.26 0.18 0.14 0.18 0.06 0.08 0.05 0.25 0.02 0.43 0.06 0.07 0.01 0.01 0.01 0.04 0.08 0.12 0.07 0.03 0.25 0.12 0.15 0.13 0.06 0.06 0.10 0.08
0.00 0.00 0.01 0.00 0.03 0.00 0.02 0.18 0.02 0.19 0.05 0.02 0.05 0.03 0.10 0.14 0.21 0.47 0.36 0.04 0.01 0.04 0.03 0.03 0.04 0.05 0.02 0.11 0.13 0.16 0.17 0.15 0.34 0.49 1.02 1.20 1.19 1.14 0.99 0.82 0.83 0.72 0.78 0.59 0.35 0.46 0.86 0.85 0.94 1.52 1.53 1.50 1.61 1.73 2.04 2.41 1.55 0.36 0.23 0.11 0.16 0.29 0.41 0.24 0.25 0.35 0.34 0.09 0.27 0.21 0.62 0.17 0.31 0.06 0.03 0.04 0.16 0.06 0.09 0.07 0.06 0.03 0.04 0.03 0.05 0.07 0.12 0.11 0.14 0.12 0.12 0.02 0.06 0.08 0.16 0.03 0.06
0.06 0.00 0.01 0.00 0.00 0.00 0.00 0.00 0.00 0.00 0.00 0.01 0.01 0.12 0.01 0.02 0.15 0.54 0.27 0.03 0.06 0.11 0.05 0.04 0.26 0.37 0.49 0.58 0.80 0.88 0.85 0.76 0.94 1.25 1.29 1.14 1.17 0.96 1.03 0.51 0.38 0.29 0.43 0.38 0.63 1.04 0.97 0.99 0.76 0.53 0.73 0.73 1.68 1.16 1.09 1.98 1.45 0.89 0.76 0.24 0.19 0.20 0.20 0.07 0.10 0.04 0.19 0.35 0.36 0.39 0.25 0.13 0.29 0.45 0.38 0.41 0.36 0.25 0.09 0.09 0.02 0.02 0.11 0.04 0.02 0.02 0.06 0.10 0.07 0.10 0.04 0.06 0.05 0.02 0.06 0.16 0.03
0.00 0.01 0.05 0.00 0.00 0.00 0.01 0.04 0.01 0.00 0.00 0.11 0.01 0.05 0.12 0.04 0.49 0.31 0.37 0.33 0.22 0.18 0.23 0.41 0.42 0.52 0.60 0.75 0.71 0.83 0.98 1.05 0.80 0.91 0.75 0.73 0.61 0.84 0.83 0.56 0.79 0.43 0.45 0.31 0.46 0.79 0.73 1.11 1.06 0.68 1.04 1.35 1.22 0.96 0.69 0.75 0.94 1.29 0.75 0.30 0.22 0.12 0.15 0.11 0.11 0.06 0.18 0.48 0.28 0.56 0.22 0.25 0.09 0.08 0.12 0.19 0.16 0.05 0.05 0.07 0.05 0.00 0.02 0.05 0.03 0.02 0.02 0.09 0.05 0.05 0.04 0.04 0.05 0.04 0.03 0.14 0.03
0.00 0.06 0.00 0.01 0.03 0.02 0.01 0.01 0.02 0.01 0.00 0.04 0.02 0.04 0.11 0.16 0.39 0.12 0.46 0.51 0.29 0.23 0.24 0.15 0.13 0.11 0.34 0.69 0.95 0.88 0.53 0.55 0.50 0.67 0.63 0.40 0.52 0.44 0.58 0.52 0.43 0.55 1.02 0.50 0.50 0.46 0.28 0.31 0.43 0.36 0.88 1.27 1.85 1.77 1.29 1.89 1.18 1.77 0.94 0.43 0.17 0.19 0.56 0.57 0.36 0.28 0.42 0.30 0.21 0.23 0.12 0.14 0.21 0.21 0.14 0.16 0.06 0.16 0.26 0.00 0.00 0.00 0.00 0.05 0.04 0.03 0.02 0.02 0.02 0.02 0.02 0.07 0.04 0.05 0.02 0.02 0.03
0.00 0.00 0.00 0.00 0.00 0.09 0.04 0.00 0.03 0.00 0.10 0.00 0.07 0.02 0.07 0.15 0.30 0.25 0.26 0.26 0.40 0.23 0.20 0.33 0.33 0.45 0.30 0.33 0.24 0.36 0.39 0.53 0.61 0.68 0.68 0.61 0.54 0.85 0.74 0.66 0.67 0.74 0.39 0.34 0.75 1.26 1.03 0.98 0.41 0.41 0.66 1.71 0.56 0.40 1.42 1.24 0.83 0.50 0.73 0.66 0.55 0.37 0.14 0.11 0.07 0.06 0.09 0.04 0.04 0.05 0.14 0.19 0.17 0.35 0.14 0.04 0.09 0.06 0.09 0.00 0.00 0.00 0.00 0.04 0.01 0.06 0.03 0.03 0.01 0.01 0.04 0.02 0.02 0.03 0.02 0.02 0.04
0.00 0.00 0.00 0.00 0.00 0.02 0.00 0.06 0.04 0.03 0.07 0.09 0.06 0.18 0.37 0.24 0.25 0.16 0.36 0.22 0.15 0.44 0.41 0.30 0.46 0.50 0.68 0.59 0.34 0.38 0.42 0.45 0.41 0.62 0.47 0.79 0.74 0.75 0.75 0.69 0.78 0.73 0.63 1.37 1.54 1.45 1.48 1.41 1.06 1.52 1.28 1.01 1.30 1.02 1.12 1.04 1.00 0.64 0.47 0.57 0.50 0.30 0.10 0.13 0.23 0.07 0.02 0.01 0.01 0.02 0.03 0.07 0.10 0.06 0.05 0.05 0.05 0.09 0.03 0.03 0.00 0.00 0.01 0.00 0.00 0.01 0.01 0.02 0.01 0.01 0.03 0.02 0.04 0.03 0.04 0.07 0.03
0.00 0.00 0.00 0.00 0.01 0.01 0.03 0.03 0.00 0.01 0.02 0.12 0.07 0.15 0.19 0.45 0.19 0.45 0.35 0.12 0.46 0.39 0.54 0.59 0.49 0.43 0.31 0.29 0.46 0.37 0.55 0.39 0.31 0.24 0.50 0.49 0.60 0.99 0.83 0.81 0.81 0.68 0.71 0.74 0.84 0.68 0.62 1.01 1.63 1.57 1.88 1.73 1.43 1.39 1.04 1.56 0.90 1.17 0.72 0.82 0.19 0.41 0.10 0.03 0.14 0.31 0.21 0.13 0.01 0.01 0.05 0.09 0.07 0.05 0.14 0.12 0.04 0.01 0.02 0.01 0.00 0.00 0.00 0.00 0.01 0.00 0.00 0.01 0.03 0.01 0.02 0.02 0.03 0.11 0.12 0.05 0.03